Time,TemperatureF,DewpointF,PressureIn,WindDirection,WindDirectionDegrees,WindSpeedMPH,WindSpeedGustMPH,Humidity,HourlyPrecipIn,Conditions,Clouds,dailyrainin,SoftwareType,DateUTC
2013-07-20 00:00:00,77.1,75.6,29.81,SSW,210,3.0,3.0,95,0.00,,,0.00,Wunderground v.1.15,2013-07-20 04:00:00,
2013-07-20 00:10:00,77.0,75.5,29.80,WSW,243,2.0,7.0,95,0.00,,,0.00,Wunderground v.1.15,2013-07-20 04:10:00,
2013-07-20 00:20:00,76.9,75.4,29.80,SW,215,2.0,7.0,95,0.00,,,0.00,Wunderground v.1.15,2013-07-20 04:20:00,
2013-07-20 00:30:00,76.8,75.6,29.79,WSW,257,3.0,7.0,96,0.00,,,0.00,Wunderground v.1.15,2013-07-20 04:30:00,
2013-07-20 00:40:00,76.7,75.5,29.79,WSW,248,2.0,7.0,96,0.00,,,0.00,Wunderground v.1.15,2013-07-20 04:40:00,
2013-07-20 00:50:00,76.7,75.5,29.80,WSW,238,2.0,2.0,96,0.00,,,0.00,Wunderground v.1.15,2013-07-20 04:50:00,
2013-07-20 01:00:00,76.5,75.3,29.80,SSW,212,3.0,7.0,96,0.00,,,0.00,Wunderground v.1.15,2013-07-20 05:00:00,
2013-07-20 01:10:00,76.6,75.4,29.80,West,262,3.0,3.0,96,0.00,,,0.00,Wunderground v.1.15,2013-07-20 05:10:00,
2013-07-20 01:20:00,76.5,75.3,29.80,West,260,2.0,2.0,96,0.00,,,0.00,Wunderground v.1.15,2013-07-20 05:20:00,
2013-07-20 01:30:00,76.4,75.2,29.79,WNW,302,2.0,2.0,96,0.00,,,0.00,Wunderground v.1.15,2013-07-20 05:30:00,
2013-07-20 01:40:00,76.3,75.4,29.79,South,184,2.0,2.0,97,0.00,,,0.00,Wunderground v.1.15,2013-07-20 05:40:00,
2013-07-20 01:50:00,76.2,75.3,29.79,WNW,297,2.0,7.0,97,0.00,,,0.00,Wunderground v.1.15,2013-07-20 05:50:00,
2013-07-20 02:00:00,76.1,75.2,29.79,SW,214,2.0,7.0,97,0.00,,,0.00,Wunderground v.1.15,2013-07-20 06:00:00,
2013-07-20 02:10:00,76.1,75.2,29.79,WSW,250,3.0,7.0,97,0.00,,,0.00,Wunderground v.1.15,2013-07-20 06:10:00,
2013-07-20 02:20:00,76.0,75.1,29.79,SSW,200,3.0,7.0,97,0.00,,,0.00,Wunderground v.1.15,2013-07-20 06:20:00,
2013-07-20 02:30:00,76.0,75.1,29.79,South,172,3.0,7.0,97,0.00,,,0.00,Wunderground v.1.15,2013-07-20 06:30:00,
2013-07-20 02:40:00,75.9,75.0,29.78,SSW,194,2.0,2.0,97,0.00,,,0.00,Wunderground v.1.15,2013-07-20 06:40:00,
2013-07-20 02:50:00,75.8,74.9,29.78,West,272,2.0,7.0,97,0.00,,,0.00,Wunderground v.1.15,2013-07-20 06:50:00,
2013-07-20 03:00:00,75.9,75.0,29.78,South,184,2.0,2.0,97,0.00,,,0.00,Wunderground v.1.15,2013-07-20 07:00:00,
2013-07-20 03:10:00,75.9,75.0,29.77,WSW,239,3.0,7.0,97,0.00,,,0.00,Wunderground v.1.15,2013-07-20 07:10:00,
2013-07-20 03:20:00,75.9,75.0,29.77,ESE,108,3.0,7.0,97,0.00,,,0.00,Wunderground v.1.15,2013-07-20 07:20:00,
2013-07-20 03:30:00,75.9,75.0,29.77,NNE,15,3.0,7.0,97,0.00,,,0.00,Wunderground v.1.15,2013-07-20 07:30:00,
2013-07-20 03:40:00,75.9,75.0,29.77,West,259,2.0,2.0,97,0.00,,,0.00,Wunderground v.1.15,2013-07-20 07:40:00,
2013-07-20 03:50:00,75.9,75.0,29.77,WSW,243,2.0,2.0,97,0.00,,,0.00,Wunderground v.1.15,2013-07-20 07:50:00,
2013-07-20 04:00:00,75.9,75.3,29.76,SSW,201,2.0,2.0,98,0.00,,,0.00,Wunderground v.1.15,2013-07-20 08:00:00,
2013-07-20 04:10:00,76.0,75.1,29.77,SE,143,3.0,7.0,97,0.00,,,0.00,Wunderground v.1.15,2013-07-20 08:10:00,
2013-07-20 04:20:00,76.0,75.1,29.77,West,273,3.0,3.0,97,0.00,,,0.00,Wunderground v.1.15,2013-07-20 08:20:00,
2013-07-20 04:30:00,76.1,75.2,29.76,WSW,250,2.0,7.0,97,0.00,,,0.00,Wunderground v.1.15,2013-07-20 08:30:00,
2013-07-20 04:40:00,76.1,75.2,29.77,West,259,3.0,3.0,97,0.00,,,0.00,Wunderground v.1.15,2013-07-20 08:40:00,
2013-07-20 04:50:00,76.2,75.6,29.77,SW,225,3.0,3.0,98,0.00,,,0.00,Wunderground v.1.15,2013-07-20 08:50:00,
2013-07-20 05:00:00,76.2,75.6,29.76,NNW,333,2.0,7.0,98,0.00,,,0.00,Wunderground v.1.15,2013-07-20 09:00:00,
2013-07-20 05:10:00,76.2,75.6,29.77,WSW,251,2.0,2.0,98,0.00,,,0.00,Wunderground v.1.15,2013-07-20 09:10:00,
2013-07-20 05:20:00,76.2,75.6,29.76,SW,226,2.0,7.0,98,0.00,,,0.00,Wunderground v.1.15,2013-07-20 09:20:00,
2013-07-20 05:30:00,76.2,75.6,29.76,West,272,2.0,7.0,98,0.00,,,0.00,Wunderground v.1.15,2013-07-20 09:30:00,
2013-07-20 05:40:00,76.2,75.6,29.77,East,81,2.0,2.0,98,0.00,,,0.00,Wunderground v.1.15,2013-07-20 09:40:00,
2013-07-20 05:50:00,76.2,75.6,29.77,SW,218,2.0,7.0,98,0.00,,,0.00,Wunderground v.1.15,2013-07-20 09:50:00,
2013-07-20 06:00:00,76.3,75.7,29.77,WSW,257,2.0,7.0,98,0.00,,,0.00,Wunderground v.1.15,2013-07-20 10:00:00,
2013-07-20 06:10:00,76.4,75.8,29.77,NNW,328,2.0,7.0,98,0.00,,,0.00,Wunderground v.1.15,2013-07-20 10:10:00,
2013-07-20 06:20:00,76.6,76.0,29.77,WSW,255,1.0,7.0,98,0.00,,,0.00,Wunderground v.1.15,2013-07-20 10:20:00,
2013-07-20 06:30:00,76.7,75.8,29.77,WNW,287,2.0,2.0,97,0.00,,,0.00,Wunderground v.1.15,2013-07-20 10:30:00,
2013-07-20 06:40:00,76.9,76.0,29.77,WSW,238,2.0,2.0,97,0.00,,,0.00,Wunderground v.1.15,2013-07-20 10:40:00,
2013-07-20 06:50:00,77.0,76.1,29.77,WNW,283,2.0,7.0,97,0.00,,,0.00,Wunderground v.1.15,2013-07-20 10:50:00,
2013-07-20 07:00:00,77.0,76.1,29.77,WSW,243,2.0,7.0,97,0.00,,,0.00,Wunderground v.1.15,2013-07-20 11:00:00,
2013-07-20 07:10:00,77.2,76.3,29.78,South,191,2.0,7.0,97,0.00,,,0.00,Wunderground v.1.15,2013-07-20 11:10:00,
2013-07-20 07:20:00,77.1,75.9,29.78,SW,219,2.0,7.0,96,0.00,,,0.00,Wunderground v.1.15,2013-07-20 11:20:00,
2013-07-20 07:30:00,77.1,75.9,29.78,SW,226,2.0,7.0,96,0.00,,,0.00,Wunderground v.1.15,2013-07-20 11:30:00,
2013-07-20 07:40:00,77.3,76.1,29.78,WSW,257,2.0,7.0,96,0.00,,,0.00,Wunderground v.1.15,2013-07-20 11:40:00,
2013-07-20 07:50:00,77.4,76.2,29.78,ENE,77,2.0,2.0,96,0.00,,,0.00,Wunderground v.1.15,2013-07-20 11:50:00,
2013-07-20 08:00:00,77.9,76.7,29.78,SSE,152,2.0,2.0,96,0.00,,,0.00,Wunderground v.1.15,2013-07-20 12:00:00,
2013-07-20 08:10:00,78.4,77.2,29.78,West,270,2.0,7.0,96,0.00,,,0.00,Wunderground v.1.15,2013-07-20 12:10:00,
2013-07-20 08:20:00,78.8,77.2,29.78,SW,221,2.0,7.0,95,0.00,,,0.00,Wunderground v.1.15,2013-07-20 12:20:00,
2013-07-20 08:30:00,79.3,77.4,29.78,SSE,167,2.0,7.0,94,0.00,,,0.00,Wunderground v.1.15,2013-07-20 12:30:00,
2013-07-20 08:40:00,80.0,77.5,29.79,West,259,2.0,2.0,92,0.00,,,0.00,Wunderground v.1.15,2013-07-20 12:40:00,
2013-07-20 08:50:00,80.7,77.8,29.78,West,268,2.0,2.0,91,0.00,,,0.00,Wunderground v.1.15,2013-07-20 12:50:00,
2013-07-20 09:00:00,81.1,77.9,29.77,WSW,237,2.0,7.0,90,0.00,,,0.00,Wunderground v.1.15,2013-07-20 13:00:00,
2013-07-20 09:10:00,81.7,78.1,29.77,SSW,203,2.0,7.0,89,0.00,,,0.00,Wunderground v.1.15,2013-07-20 13:10:00,
2013-07-20 09:20:00,82.0,78.1,29.77,East,86,2.0,2.0,88,0.00,,,0.00,Wunderground v.1.15,2013-07-20 13:20:00,
2013-07-20 09:30:00,82.6,78.3,29.78,West,274,1.0,7.0,87,0.00,,,0.00,Wunderground v.1.15,2013-07-20 13:30:00,
2013-07-20 09:40:00,82.6,78.3,29.77,WNW,285,2.0,7.0,87,0.00,,,0.00,Wunderground v.1.15,2013-07-20 13:40:00,
2013-07-20 09:50:00,83.3,78.7,29.77,South,186,2.0,7.0,86,0.00,,,0.00,Wunderground v.1.15,2013-07-20 13:50:00,
2013-07-20 10:00:00,83.4,78.8,29.77,SW,215,2.0,2.0,86,0.00,,,0.00,Wunderground v.1.15,2013-07-20 14:00:00,
2013-07-20 10:10:00,83.9,78.5,29.77,WSW,257,2.0,7.0,84,0.00,,,0.00,Wunderground v.1.15,2013-07-20 14:10:00,
2013-07-20 10:20:00,83.7,78.3,29.77,SW,215,3.0,3.0,84,0.00,,,0.00,Wunderground v.1.15,2013-07-20 14:20:00,
2013-07-20 10:30:00,84.1,78.4,29.77,West,270,2.0,7.0,83,0.00,,,0.00,Wunderground v.1.15,2013-07-20 14:30:00,
2013-07-20 10:40:00,84.6,78.9,29.76,West,263,2.0,7.0,83,0.00,,,0.00,Wunderground v.1.15,2013-07-20 14:40:00,
2013-07-20 10:50:00,84.6,78.9,29.76,SSW,197,3.0,3.0,83,0.00,,,0.00,Wunderground v.1.15,2013-07-20 14:50:00,
2013-07-20 11:00:00,84.2,78.5,29.76,SW,217,3.0,7.0,83,0.00,,,0.00,Wunderground v.1.15,2013-07-20 15:00:00,
2013-07-20 11:10:00,84.1,78.7,29.75,WSW,250,3.0,3.0,84,0.00,,,0.00,Wunderground v.1.15,2013-07-20 15:10:00,
2013-07-20 11:20:00,84.2,78.1,29.75,South,179,3.0,3.0,82,0.00,,,0.00,Wunderground v.1.15,2013-07-20 15:20:00,
2013-07-20 11:30:00,83.7,78.0,29.75,South,176,3.0,7.0,83,0.00,,,0.00,Wunderground v.1.15,2013-07-20 15:30:00,
2013-07-20 11:40:00,83.1,77.8,29.75,West,260,4.0,4.0,84,0.00,,,0.00,Wunderground v.1.15,2013-07-20 15:40:00,
2013-07-20 11:50:00,82.3,77.7,29.75,SSE,158,3.0,3.0,86,0.00,,,0.00,Wunderground v.1.15,2013-07-20 15:50:00,
2013-07-20 12:00:00,82.5,77.9,29.75,SSW,202,3.0,3.0,86,0.00,,,0.00,Wunderground v.1.15,2013-07-20 16:00:00,
2013-07-20 12:10:00,82.6,77.3,29.75,SW,224,3.0,3.0,84,0.00,,,0.00,Wunderground v.1.15,2013-07-20 16:10:00,
2013-07-20 12:20:00,81.6,77.0,29.75,WNW,296,3.0,3.0,86,0.00,,,0.00,Wunderground v.1.15,2013-07-20 16:20:00,
2013-07-20 12:30:00,81.2,77.6,29.74,WSW,253,4.0,4.0,89,0.00,,,0.00,Wunderground v.1.15,2013-07-20 16:30:00,
2013-07-20 12:40:00,81.3,77.4,29.74,WSW,248,3.0,7.0,88,0.00,,,0.00,Wunderground v.1.15,2013-07-20 16:40:00,
2013-07-20 12:50:00,80.9,77.4,29.74,SSW,201,3.0,7.0,89,0.00,,,0.00,Wunderground v.1.15,2013-07-20 16:50:00,
2013-07-20 13:00:00,82.6,78.0,29.74,SSW,210,3.0,7.0,86,0.00,,,0.00,Wunderground v.1.15,2013-07-20 17:00:00,
2013-07-20 13:10:00,84.2,78.5,29.74,SW,229,2.0,7.0,83,0.00,,,0.00,Wunderground v.1.15,2013-07-20 17:10:00,
2013-07-20 13:20:00,84.0,78.3,29.73,WNW,290,3.0,7.0,83,0.00,,,0.00,Wunderground v.1.15,2013-07-20 17:20:00,
2013-07-20 13:30:00,83.2,77.9,29.73,East,98,3.0,3.0,84,0.00,,,0.00,Wunderground v.1.15,2013-07-20 17:30:00,
2013-07-20 13:40:00,83.6,77.9,29.72,SSW,211,3.0,3.0,83,0.00,,,0.00,Wunderground v.1.15,2013-07-20 17:40:00,
2013-07-20 13:50:00,83.6,77.9,29.72,West,259,3.0,7.0,83,0.00,,,0.00,Wunderground v.1.15,2013-07-20 17:50:00,
2013-07-20 14:00:00,83.6,77.9,29.72,SW,229,3.0,7.0,83,0.00,,,0.00,Wunderground v.1.15,2013-07-20 18:00:00,
2013-07-20 14:10:00,83.0,77.3,29.72,WSW,248,4.0,9.0,83,0.00,,,0.00,Wunderground v.1.15,2013-07-20 18:10:00,
2013-07-20 14:30:00,83.2,77.5,29.71,West,271,3.0,7.0,83,0.00,,,0.00,Wunderground v.1.15,2013-07-20 18:30:00,
2013-07-20 14:50:00,82.4,77.1,29.71,South,183,3.0,7.0,84,0.00,,,0.00,Wunderground v.1.15,2013-07-20 18:50:00,
2013-07-20 15:00:00,82.7,77.4,29.71,SE,143,3.0,7.0,84,0.00,,,0.00,Wunderground v.1.15,2013-07-20 19:00:00,
2013-07-20 15:10:00,82.8,77.8,29.71,West,259,4.0,7.0,85,0.00,,,0.00,Wunderground v.1.15,2013-07-20 19:10:00,
2013-07-20 15:40:00,81.9,77.6,29.70,West,262,4.0,4.0,87,0.00,,,0.00,Wunderground v.1.15,2013-07-20 19:40:00,
2013-07-20 15:50:00,82.1,77.5,29.69,SW,218,4.0,7.0,86,0.00,,,0.00,Wunderground v.1.15,2013-07-20 19:50:00,
2013-07-20 16:00:00,81.8,77.5,29.69,South,190,4.0,7.0,87,0.00,,,0.00,Wunderground v.1.15,2013-07-20 20:00:00,
2013-07-20 16:10:00,81.7,77.8,29.70,South,186,3.0,7.0,88,0.00,,,0.00,Wunderground v.1.15,2013-07-20 20:10:00,
2013-07-20 16:30:00,81.6,77.7,29.72,SW,236,3.0,7.0,88,0.00,,,0.00,Wunderground v.1.15,2013-07-20 20:30:00,
2013-07-20 16:40:00,81.9,77.6,29.72,SSW,207,3.0,7.0,87,0.00,,,0.00,Wunderground v.1.15,2013-07-20 20:40:00,
2013-07-20 17:00:00,82.8,77.8,29.72,SSE,150,3.0,8.0,85,0.00,,,0.00,Wunderground v.1.15,2013-07-20 21:00:00,
2013-07-20 17:10:00,82.6,77.6,29.72,WNW,294,3.0,7.0,85,0.00,,,0.00,Wunderground v.1.15,2013-07-20 21:10:00,
2013-07-20 17:20:00,82.4,77.8,29.72,WSW,257,3.0,3.0,86,0.00,,,0.00,Wunderground v.1.15,2013-07-20 21:20:00,
2013-07-20 17:30:00,82.5,77.9,29.72,WNW,290,3.0,3.0,86,0.00,,,0.00,Wunderground v.1.15,2013-07-20 21:30:00,
2013-07-20 17:40:00,82.4,78.1,29.72,SSE,148,2.0,7.0,87,0.00,,,0.00,Wunderground v.1.15,2013-07-20 21:40:00,
2013-07-20 17:50:00,82.0,77.7,29.72,SSE,160,3.0,3.0,87,0.00,,,0.00,Wunderground v.1.15,2013-07-20 21:50:00,
2013-07-20 18:00:00,81.8,77.9,29.72,WSW,257,3.0,3.0,88,0.00,,,0.00,Wunderground v.1.15,2013-07-20 22:00:00,
2013-07-20 18:10:00,81.1,77.5,29.72,WSW,250,3.0,3.0,89,0.00,,,0.00,Wunderground v.1.15,2013-07-20 22:10:00,
2013-07-20 18:30:00,80.5,77.3,29.72,SW,236,3.0,7.0,90,0.00,,,0.00,Wunderground v.1.15,2013-07-20 22:30:00,
2013-07-20 18:40:00,80.0,77.1,29.72,West,266,3.0,7.0,91,0.00,,,0.00,Wunderground v.1.15,2013-07-20 22:40:00,
2013-07-20 18:50:00,79.5,77.0,29.73,West,262,2.0,2.0,92,0.00,,,0.00,Wunderground v.1.15,2013-07-20 22:50:00,
2013-07-20 19:00:00,79.1,76.9,29.73,West,276,2.0,7.0,93,0.00,,,0.00,Wunderground v.1.15,2013-07-20 23:00:00,
2013-07-20 19:10:00,78.9,76.7,29.73,West,259,2.0,2.0,93,0.00,,,0.00,Wunderground v.1.15,2013-07-20 23:10:00,
2013-07-20 19:30:00,78.8,76.6,29.74,SW,215,3.0,7.0,93,0.00,,,0.00,Wunderground v.1.15,2013-07-20 23:30:00,
2013-07-20 19:40:00,78.7,76.8,29.74,WNW,290,2.0,2.0,94,0.00,,,0.00,Wunderground v.1.15,2013-07-20 23:40:00,
2013-07-20 19:50:00,78.4,76.5,29.74,NW,312,2.0,2.0,94,0.00,,,0.00,Wunderground v.1.15,2013-07-20 23:50:00,
2013-07-20 20:00:00,78.0,76.1,29.74,WNW,299,2.0,7.0,94,0.00,,,0.00,Wunderground v.1.15,2013-07-21 00:00:00,
2013-07-20 20:10:00,77.8,76.3,29.74,West,274,2.0,2.0,95,0.00,,,0.00,Wunderground v.1.15,2013-07-21 00:10:00,
2013-07-20 20:20:00,77.6,76.1,29.74,North,10,2.0,7.0,95,0.00,,,0.00,Wunderground v.1.15,2013-07-21 00:20:00,
2013-07-20 20:30:00,77.5,76.0,29.75,West,271,2.0,2.0,95,0.00,,,0.00,Wunderground v.1.15,2013-07-21 00:30:00,
2013-07-20 20:50:00,77.4,75.9,29.76,SE,135,2.0,2.0,95,0.00,,,0.00,Wunderground v.1.15,2013-07-21 00:50:00,
2013-07-20 21:00:00,77.4,75.9,29.76,West,266,2.0,2.0,95,0.00,,,0.00,Wunderground v.1.15,2013-07-21 01:00:00,
2013-07-20 21:10:00,77.3,76.1,29.77,East,84,2.0,2.0,96,0.00,,,0.00,Wunderground v.1.15,2013-07-21 01:10:00,
2013-07-20 21:30:00,77.1,75.9,29.77,West,278,2.0,7.0,96,0.00,,,0.00,Wunderground v.1.15,2013-07-21 01:30:00,
2013-07-20 21:40:00,77.1,75.9,29.78,NW,315,2.0,2.0,96,0.00,,,0.00,Wunderground v.1.15,2013-07-21 01:40:00,
2013-07-20 21:50:00,77.0,75.8,29.78,West,259,2.0,2.0,96,0.00,,,0.00,Wunderground v.1.15,2013-07-21 01:50:00,
2013-07-20 22:00:00,77.1,75.6,29.78,WNW,297,2.0,2.0,95,0.00,,,0.00,Wunderground v.1.15,2013-07-21 02:00:00,
2013-07-20 22:30:00,76.6,75.1,29.78,WNW,290,2.0,7.0,95,0.00,,,0.00,Wunderground v.1.15,2013-07-21 02:30:00,
2013-07-20 22:40:00,76.6,75.4,29.79,ENE,71,2.0,2.0,96,0.00,,,0.00,Wunderground v.1.15,2013-07-21 02:40:00,
2013-07-20 22:50:00,76.6,75.4,29.79,WSW,243,1.0,7.0,96,0.00,,,0.00,Wunderground v.1.15,2013-07-21 02:50:00,
2013-07-20 23:00:00,76.6,75.4,29.80,West,259,1.0,7.0,96,0.00,,,0.00,Wunderground v.1.15,2013-07-21 03:00:00,
2013-07-20 23:10:00,76.4,74.5,29.80,NW,321,1.0,7.0,94,0.00,,,0.00,Wunderground v.1.15,2013-07-21 03:10:00,
2013-07-20 23:20:00,76.4,73.9,29.80,ESE,120,1.0,1.0,92,0.00,,,0.00,Wunderground v.1.15,2013-07-21 03:20:00,
2013-07-20 23:30:00,76.2,73.4,29.80,SW,228,0.0,7.0,91,0.00,,,0.00,Wunderground v.1.15,2013-07-21 03:30:00,
2013-07-20 23:40:00,75.9,73.1,29.80,SSE,155,0.0,7.0,91,0.00,,,0.00,Wunderground v.1.15,2013-07-21 03:40:00,
2013-07-20 23:50:00,75.7,72.9,29.80,West,273,0.0,7.0,91,0.00,,,0.00,Wunderground v.1.15,2013-07-21 03:50:00,